SCP
0 0 0 0 0 1 1 1 1 1 1 1 1 0 0 1 1 1 1 1 0 0 0 0 0 0 0 0 0 0 0 0 0 0 0 0 0 0 0 0 0 0 0
0 0 0 0 0 1 1 1 1 1 1 1 1 1 0 1 1 1 1 1 0 0 0 0 0 0 0 0 0 0 0 0 0 0 0 0 0 0 0 0 0 0 0
1 1 1 0 1 1 1 1 1 1 1 1 1 0 0 0 1 1 1 1 0 0 0 0 0 0 0 0 0 0 0 0 0 0 0 0 0 0 0 0 0 0 0
1 1 1 1 1 1 1 1 1 1 1 1 1 1 0 0 0 0 1 1 1 1 0 0 0 0 0 0 0 0 0 0 0 0 0 0 0 0 0 0 0 0 0
1 1 1 1 1 1 1 1 1 1 1 1 1 1 0 0 0 0 1 1 1 1 1 1 1 1 0 0 0 0 0 0 0 0 0 0 0 0 0 0 0 0 0
1 1 1 1 1 1 1 1 1 1 1 1 1 1 1 0 0 0 1 1 1 0 0 0 1 1 1 0 0 0 0 0 0 0 0 0 0 0 0 0 0 0 0
1 1 1 1 1 1 1 1 1 1 1 1 1 1 1 1 0 0 1 0 0 0 0 0 0 0 1 1 0 0 0 0 0 0 0 0 0 0 0 0 0 0 0
0 1 1 1 1 1 1 1 1 1 1 1 1 1 1 1 0 0 0 0 0 0 0 0 0 0 0 0 0 0 0 0 0 0 0 0 0 0 0 0 0 0 0
0 1 1 1 1 1 1 1 1 1 1 1 1 1 1 1 1 1 0 0 0 0 0 0 0 0 1 1 0 0 0 0 0 0 0 0 0 0 0 0 0 0 0
0 1 1 1 1 1 1 1 1 1 1 1 1 1 1 1 1 1 1 0 0 0 0 0 0 0 1 1 1 0 0 0 0 0 0 0 0 0 0 0 0 0 0
0 1 1 1 1 1 1 1 1 1 1 1 1 1 1 1 1 1 1 1 1 1 1 1 1 1 1 1 1 1 0 0 0 0 0 0 0 0 0 0 0 0 0
0 1 1 1 1 1 1 1 1 1 1 1 1 1 1 1 1 1 1 1 1 1 1 1 1 1 1 1 1 1 1 0 0 0 0 0 0 0 0 0 0 0 0
1 1 1 1 1 1 1 1 1 1 1 1 1 1 1 1 1 1 1 1 1 1 1 1 1 1 1 1 1 1 1 0 0 0 0 0 0 0 0 0 0 0 0
1 1 1 1 1 1 2 2 1 1 1 1 1 1 1 1 1 1 1 1 1 1 1 1 1 1 1 1 1 1 1 1 1 1 0 0 0 0 0 0 0 0 0
1 1 1 2 2 2 2 2 2 2 2 1 1 1 1 1 1 1 1 1 1 1 1 1 1 1 1 1 1 1 1 1 1 1 1 0 0 0 0 0 0 0 0
1 1 2 2 2 2 2 2 2 2 2 2 1 2 2 1 1 1 1 1 1 1 1 1 1 1 1 0 0 0 1 1 1 1 1 0 0 0 0 0 0 0 0
1 2 2 2 2 2 2 2 2 1 1 1 1 1 2 2 2 1 1 1 1 1 1 1 1 1 1 0 0 0 0 1 1 1 1 0 0 0 0 0 0 0 0
1 2 2 2 2 2 2 2 1 1 1 1 1 1 1 2 2 1 1 1 1 1 1 1 1 1 1 0 0 0 0 1 1 1 1 1 0 0 0 0 0 0 0
2 2 2 2 2 2 2 1 1 1 1 1 1 1 1 2 2 2 1 1 1 1 1 1 1 1 1 0 0 0 0 0 0 0 0 0 0 0 0 0 0 0 0
2 2 1 2 2 2 2 2 1 1 1 1 1 1 2 2 2 2 1 1 1 1 1 1 1 1 1 0 0 0 0 0 0 0 0 0 0 0 0 0 0 0 0
2 1 1 2 2 2 2 2 1 1 1 1 1 2 2 2 2 2 1 1 1 1 1 1 1 1 1 0 0 0 0 0 0 0 0 0 0 0 0 0 0 0 0
1 1 1 2 2 2 2 2 2 1 1 2 1 2 2 2 1 1 1 1 1 1 1 1 1 1 1 0 0 0 0 0 0 0 0 0 0 0 0 0 0 0 0
1 1 1 1 1 2 2 2 2 2 2 2 2 2 2 2 1 1 1 1 1 1 1 1 1 1 1 1 0 0 0 0 0 0 0 0 0 0 0 0 0 0 0
1 1 1 1 2 2 2 2 2 2 2 2 2 2 2 2 1 1 1 1 1 1 1 1 1 1 1 0 0 0 0 0 0 0 0 0 0 0 0 0 0 0 0
1 1 1 1 2 2 2 2 2 2 2 2 2 2 1 1 1 1 1 1 1 0 0 0 0 0 0 0 0 0 0 0 0 0 0 0 0 0 0 0 0 0 0
2 2 2 1 2 2 2 2 2 2 2 2 2 1 1 1 1 1 1 0 0 0 0 0 0 0 0 0 0 0 0 0 0 0 0 0 0 0 0 0 0 0 0
Wind_Speed
10 10 10 10 9 8 7 5 4 4 2 2 1 1 1 1 1 1 1 1 0 0 0 1 1 1 1 1 2 2 1 1 1 1 1 1 2 2 2 2 2 3 4
11 10 9 9 9 8 7 6 4 4 3 2 1 1 1 1 2 1 1 1 1 0 0 1 1 1 0 1 2 1 1 1 0 1 1 1 1 1 3 2 2 2 2
13 11 9 9 9 9 8 6 5 4 3 3 2 1 1 0 1 1 1 1 1 0 1 1 1 2 1 1 1 1 1 1 1 0 1 0 1 1 0 1 1 2 2
13 13 10 9 9 9 9 7 6 4 4 3 2 2 2 1 1 1 1 1 0 0 1 1 1 1 1 1 1 0 1 1 1 1 1 1 0 0 0 1 0 1 2
14 14 13 10 9 10 10 8 6 5 4 3 2 2 1 1 1 1 1 1 1 0 0 0 1 1 1 1 2 1 1 0 1 2 1 0 0 1 1 1 1 1 1
13 14 13 11 9 9 9 9 7 5 4 4 3 2 1 0 0 0 1 1 1 1 0 0 1 1 1 1 1 1 1 1 1 2 2 1 0 0 1 1 1 1 1
12 13 12 11 9 10 10 10 8 6 5 4 3 2 1 1 1 1 1 1 0 1 0 1 0 1 1 1 1 1 1 1 1 1 2 2 1 1 1 1 1 1 1
12 12 12 12 10 10 10 10 9 7 6 5 3 2 2 2 1 1 0 0 0 1 1 0 0 1 1 2 1 1 1 1 1 2 1 2 2 1 1 1 1 1 1
12 13 13 12 11 10 10 10 9 7 6 5 4 3 2 1 0 0 1 1 0 1 1 0 0 0 1 2 1 1 2 1 1 2 2 2 2 2 2 1 1 1 2
10 10 11 12 11 10 10 10 9 7 6 6 4 4 3 2 1 1 0 0 1 1 1 1 0 0 0 1 1 2 2 1 2 1 1 2 2 2 2 2 2 1 2
10 11 10 10 9 9 10 10 9 8 6 5 4 4 3 3 2 1 1 0 1 1 0 1 1 1 1 1 1 2 1 2 2 2 2 2 2 2 2 2 1 1 1
7 9 9 9 9 9 8 8 9 8 7 6 5 4 3 2 2 2 1 1 0 0 0 0 1 1 1 1 1 2 2 2 2 2 2 2 2 1 2 2 2 1 1
8 8 9 8 8 8 8 7 8 8 7 7 6 4 3 3 2 1 1 1 1 0 0 0 1 1 2 1 1 1 2 2 2 1 1 1 2 2 2 2 2 2 2
7 8 8 7 6 6 6 6 5 6 6 6 6 5 3 3 2 1 1 1 1 1 0 0 1 1 1 1 2 2 2 2 2 2 1 1 1 1 2 2 1 1 1
8 8 7 7 6 6 5 5 5 4 5 5 5 5 4 3 2 2 1 1 1 1 1 1 1 2 1 1 2 3 2 2 2 2 1 1 2 3 2 2 1 1 0
7 8 8 7 6 6 6 5 4 4 4 4 4 4 3 3 2 2 2 1 1 1 1 1 1 1 1 2 2 3 3 2 2 2 2 1 1 2 3 2 3 2 1
5 6 7 6 6 6 6 6 5 4 4 4 3 3 3 3 2 2 2 1 1 1 1 1 1 0 1 2 2 3 2 2 2 1 1 2 2 2 1 1 1 2 1
6 6 7 6 6 7 7 5 5 5 5 4 3 3 3 3 2 2 2 1 1 1 1 1 1 0 1 2 2 3 2 1 1 1 1 1 1 2 2 1 0 0 0
6 6 6 6 6 6 7 6 5 4 4 4 3 3 3 2 2 2 2 2 1 1 2 1 1 0 1 0 1 2 2 1 1 0 1 1 1 2 2 1 1 1 1
5 5 5 5 6 6 6 6 5 5 4 3 3 2 2 2 2 2 2 2 2 2 2 1 1 1 1 1 1 0 2 2 1 0 1 2 1 1 1 1 2 1 2
5 5 5 5 5 6 6 5 5 4 4 3 3 2 2 2 3 2 1 1 2 2 2 2 2 2 2 2 2 1 1 3 3 1 1 1 1 1 2 2 2 2 3
4 4 5 4 4 5 5 5 4 4 3 3 3 2 2 2 1 1 1 1 1 2 2 2 2 2 2 2 2 2 2 3 3 3 1 0 1 2 3 3 3 3 3
4 4 4 4 4 4 4 4 3 3 3 3 3 2 2 1 1 1 1 1 2 2 2 2 2 2 2 2 2 3 3 3 3 3 4 3 4 4 4 5 5 4 3
4 4 4 4 4 4 3 3 3 3 3 3 3 3 3 2 2 1 1 1 1 1 1 1 1 1 1 1 1 1 1 2 2 3 3 4 4 4 4 3 3 3 3
2 3 3 3 4 4 4 3 3 3 3 3 3 3 3 3 2 2 1 1 1 2 2 1 1 0 0 0 1 1 1 1 2 2 2 3 2 3 3 2 2 2 2
2 3 3 4 4 4 4 3 3 3 3 3 3 3 2 2 3 3 2 1 1 2 2 1 1 0 1 2 1 1 1 2 2 2 3 3 2 2 2 2 2 2 2
Wind_Direction
152 152 150 146 144 139 139 139 138 130 135 142 173 181 185 174 141 137 133 129 37 4 351 334 324 330 356 326 321 317 296 265 269 293 280 244 221 202 205 212 200 190 183
150 154 155 153 150 146 147 147 150 146 154 150 165 182 167 170 153 124 136 144 134 310 281 281 300 345 348 319 306 305 314 302 213 211 292 273 236 241 216 192 198 201 187
157 157 161 161 156 153 156 155 150 150 153 152 158 152 131 140 126 157 166 169 169 192 315 347 333 329 309 268 269 287 296 303 298 215 179 234 255 296 263 218 184 185 181
158 157 163 167 160 158 155 148 148 149 149 167 168 175 181 183 182 185 176 154 154 308 316 343 322 325 328 334 298 98 306 313 302 283 216 213 145 216 293 307 270 203 189
157 158 162 164 162 161 156 149 146 152 155 173 162 188 190 190 167 154 152 169 163 213 303 6 314 314 315 345 344 10 352 4 310 298 297 239 226 233 217 248 253 272 223
153 154 156 157 163 158 153 147 146 151 160 170 166 195 187 158 23 179 136 203 168 174 230 140 326 318 332 347 319 320 315 323 314 310 309 294 259 223 238 247 237 234 250
152 152 154 155 162 157 154 147 149 156 163 165 165 184 186 194 209 256 188 258 226 123 57 41 309 300 329 336 344 324 309 317 315 293 300 310 302 286 265 252 255 241 237
153 154 156 156 160 157 152 149 154 160 166 167 163 160 175 213 212 233 260 243 270 38 100 88 92 357 352 336 357 326 304 325 306 294 299 291 288 298 266 240 248 255 243
153 154 156 157 161 161 156 153 152 158 163 164 157 158 179 190 198 170 227 289 312 106 93 80 100 315 321 332 331 306 310 320 288 294 300 287 289 279 269 246 217 208 242
149 148 154 158 161 160 154 149 148 152 158 153 165 162 170 164 174 217 235 342 352 19 60 30 339 300 322 311 298 299 302 306 301 287 312 306 304 309 288 273 258 244 239
149 148 150 147 147 153 151 149 150 155 156 154 160 148 158 165 169 175 190 132 346 16 25 320 325 313 303 281 283 288 295 300 301 301 301 303 310 323 319 306 291 269 258
141 139 139 142 150 149 150 155 154 157 157 156 154 152 152 162 175 178 184 163 189 257 142 317 326 321 324 317 308 302 311 306 304 307 318 315 302 297 303 317 315 315 290
146 139 139 143 147 145 147 152 157 159 159 159 156 153 158 162 167 164 153 153 164 204 293 319 310 322 327 335 322 306 307 305 310 314 320 320 330 321 310 305 317 315 310
142 142 139 138 137 135 132 138 149 152 152 150 152 150 161 166 162 168 156 162 175 181 225 293 282 294 320 348 333 320 311 310 316 323 319 331 346 328 318 303 312 327 351
151 143 139 133 129 128 130 135 141 138 137 142 153 153 163 165 155 165 160 177 218 207 189 236 275 276 256 357 345 318 314 322 326 330 342 16 51 52 31 349 5 2 3
149 142 136 135 138 140 141 140 143 138 130 136 147 146 154 161 167 165 161 197 230 262 248 241 265 300 344 358 356 335 320 334 332 338 344 14 81 73 65 46 40 47 22
138 143 139 143 149 149 145 152 149 147 143 147 152 150 155 164 170 177 165 200 220 230 265 276 273 71 25 355 348 335 309 338 334 344 349 331 18 67 81 50 46 49 18
151 144 145 155 162 155 147 148 156 153 153 156 161 168 170 175 170 174 177 199 211 221 246 257 248 135 28 20 358 334 289 302 315 345 353 8 22 4 18 299 187 150 286
137 140 154 159 147 145 144 146 162 156 157 162 174 184 184 177 177 184 193 207 216 238 250 232 205 176 81 78 356 346 297 289 293 281 14 8 33 358 354 317 307 286 286
126 134 142 134 132 136 142 149 157 153 161 164 171 172 177 176 187 199 210 211 213 224 230 195 190 199 179 163 161 358 297 291 282 214 136 76 30 340 337 305 302 303 312
110 115 118 119 127 134 136 144 152 159 155 150 150 159 168 183 185 184 196 215 222 208 217 202 195 187 189 169 178 187 292 323 317 297 260 144 158 282 268 268 271 274 293
109 122 123 120 122 129 138 147 151 145 138 145 155 166 174 205 168 167 199 212 225 228 224 208 209 195 180 156 171 196 244 302 312 309 313 246 253 281 272 256 254 269 290
125 126 123 121 124 129 145 153 144 140 144 151 157 167 173 188 162 196 211 218 209 232 221 212 229 211 163 144 161 203 239 278 297 325 335 305 260 261 257 246 245 252 257
127 124 129 139 136 133 136 134 133 144 155 164 171 184 189 185 167 198 202 217 220 247 256 243 251 236 139 115 143 228 241 265 283 295 296 281 263 258 263 250 234 229 244
127 135 140 148 144 137 132 141 149 153 167 185 196 211 207 186 190 196 209 195 166 191 229 273 300 309 277 293 196 224 265 277 288 282 259 257 249 252 247 239 225 219 231
135 148 156 160 153 148 150 158 165 173 189 209 210 217 218 202 203 196 187 87 186 177 177 173 193 151 154 157 151 224 273 276 286 269 268 268 261 264 275 285 275 245 236